Location: Newark
(40.4881°N, 5.6117°W)
Time: 12:14:48
(UTC+00:00)

ISS - Visible Passes

Search period start: 21 March 2019 00:00
Search period end: 31 March 2019 00:00
Orbit: 406 x 411 km, 51.6° (Epoch: 21 March)

Date Brightness Start Highest point End Pass type
(mag) Time Alt. Az. Time Alt. Az. Time Alt. Az.
21 Mar -2.8 19:24:14 10° SSW 19:27:05 27° SE 19:28:52 17° E visible
21 Mar -1.1 21:00:30 10° W 21:01:40 19° W 21:01:40 19° W visible
22 Mar -3.3 20:09:09 10° WSW 20:12:24 59° NW 20:13:29 36° NNE visible
23 Mar -3.9 19:18:03 10° SW 19:21:19 74° SE 19:24:37 10° ENE visible
23 Mar -1.3 20:55:38 10° WNW 20:57:51 20° NNW 20:57:51 20° NNW visible
24 Mar -1.9 20:03:59 10° W 20:06:54 28° NNW 20:09:16 13° NNE visible
25 Mar -2.7 19:12:30 10° WSW 19:15:40 45° NNW 19:18:52 10° NE visible
25 Mar -1.0 20:50:58 10° NW 20:52:53 14° NNW 20:53:16 14° N visible
26 Mar -1.2 19:59:09 10° WNW 20:01:29 18° NNW 20:03:50 10° NNE visible
27 Mar -1.7 19:07:24 10° W 19:10:09 24° NNW 19:12:54 10° NNE visible
27 Mar -1.0 20:46:11 10° NNW 20:47:37 12° N 20:48:10 12° N visible
28 Mar -1.0 19:54:26 10° NW 19:56:09 13° N 19:57:52 10° NNE visible
29 Mar -1.1 20:40:50 10° NNW 20:42:19 12° N 20:42:45 12° NNE visible
30 Mar -1.1 19:49:27 10° NNW 19:50:49 12° N 19:52:11 10° NNE visible
30 Mar -0.5 21:25:53 10° NNW 21:26:20 12° NNW 21:26:20 12° NNW visible
